Torna al catalogo

STARLINK-34422

AttivoComunicazioniVLEO
NORAD 64415·PAYLOAD·🇺🇸 United States

Lanciato Jun 17, 2025 da Vandenberg Space Force Base

Loading…

Prossimi Passaggi (prossime 24 ore)

TLE

AggiornatoSource: CelesTrak SupGP

Epoca: Sep 14, 2026, 20:47 UTC

1 64415C 25129D   26257.86645833 -.00024910  00000+0 -86698-3 0  2578
2 64415  69.9988 315.9715 0003489 271.1956  26.5440 15.29573708    16

Traccia STARLINK-34422 in tempo reale con AllMySat

Download on the App Store